Location: Asheville, NC
(35.6000°N, 82.5500°W)
Time: 21:00:37
(UTC-05:00)

OTV 5 (USA 277) - Pass Details

Date: 15 December 2017
Orbit: 404 x 417 km, 43.0° (Epoch: 07 September)

Event Time Altitude Azimuth Distance (km) Brightness Sun altitude
Rises 18:06:33 0° 296° (WNW) 2,349 ? -9.7°
Reaches altitude 10° 18:08:40 10° 297° (WNW) 1,486 ? -10.1°
Maximum altitude 18:12:02 87° 211° (SSW) 418 ? -10.7°
Drops below altitude 10° 18:15:23 10° 119° (ESE) 1,481 ? -11.4°
Enters shadow 18:15:47 - 119° (ESE) 1,643 ? -11.4°
